Find Local Weather

World > North America > United States > Minnesota

Balaton, Minnesota Regional Weather

Lat: 44.23N, Lon: 95.87W
Wx Zone: MNZ072
Warning FLW WEATHER ALERT - (More Info. Click Here) Warning Warning FLW SPECIAL WEATHER STATEMENT (More Info. Click Here) Warning
Feedback
Expires:201805251200;;500396
ASUS43 KMPX 251110
RWRMN 
WEATHER ROUNDUP FOR MINNESOTA
NATIONAL WEATHER SERVICE TWIN CITIES/CHANHASSEN MN
600 AM CDT FRI MAY 25 2018


NOTE: "FAIR" INDICATES FEW OR NO CLOUDS BELOW 12,000 FEET WITH NO
SIGNIFICANT WEATHER AND/OR OBSTRUCTIONS TO VISIBILITY. N/A MEANS
CURRENT SKY AND/OR WEATHER CONDITIONS ARE NOT AVAILABLE.


MNZ071>073-080-081-089-090-097-098-251200-
   Southwest Minnesota   
  
CITY           SKY/WX    TMP DP  RH WIND       PRES   REMARKS
MONTEVIDEO     PTCLDY    63  57  82 SW3       29.79R                  
CANBY          CLEAR     69  58  69 SW6       29.80S                  
MARSHALL       PTCLDY    67  61  81 SW16      29.80S                  
REDWOOD FALLS  CLOUDY    65  63  93 S5        29.78F                  
OLIVIA         CLOUDY    68  63  83 S3        29.79S                  
PIPESTONE      PTCLDY    63  61  94 W3        29.83S                  
WINDOM         MOCLDY    70  52  52 S7        29.82                   
WORTHINGTON    CLOUDY    68  63  84 SW12      29.83F                  
JACKSON        CLOUDY    68  61  77 S8        29.84S                  
TRACY          CLOUDY    70  64  82 SW12      29.81S                  
SLAYTON        RAIN      69  63  82 SW13      29.83S                  
$$

SKY/WX - Weather  TMP - Temperature  DP - Dewpoint  RH - Relative Humidity
WIND - Wind Direction/Speed PRES - Barometric Pressure